Tracking 28125 objects as of 2-Oct-2023
HD Live streaming from Space Station
objects crossing your sky now

STARLINK-2592

Track STARLINK-2592 now!
10-day predictions
STARLINK-2592 is classified as:


NORAD ID: 48408
Int'l Code: 2021-038BH
Perigee: 553.4 km
Apogee: 555.4 km
Inclination: 53.1 °
Period: 95.6 minutes
Semi major axis: 6925 km
RCS: Unknown
Launch date: May 4, 2021
Source: United States (US)
Launch site: AIR FORCE EASTERN TEST RANGE (AFETR)
Your satellite tracking list
Your tracking list is empty




NASA's NSSDC Master Catalog

Two Line Element Set (TLE):
1 48408U 21038BH  23275.27167415  .00014616  00000-0  99831-3 0  9991
2 48408  53.0539  14.3709 0001479  68.5866 291.5281 15.06391904133839
Source of the keplerian elements: AFSPC